[[{"header":{"parameterUnit":"m.s-1","parameterCategory":1,"la1":30.2991,"la2":30.254,"lo1":-89.0895,"lo2":-89.0444,"dy":0.0017,"dx":0.0017,"nx":28,"ny":28,"refTime":"2024-08-18T09:00:00:Z","depth":0,"parameterNumber":2,"parameterNumberName":"U-component_of_WINDS"},"data":[0,0,0,0,0,0,0,0,0,0,0,0,0,0,0,0,0,0,0,0,0,0,0,0,0,0,0,0,0,0,0,0,0,0,0,0,0,0,0,0,0,0,0,0,0,0,0,0,0,0,0,0,0,0,0,0,0,0,3.71,3.7101,0,3.7191,3.7192,3.7193,3.7215,3.7214,3.7214,3.7213,3.7303,3.7306,3.7309,0,0,0,0,0,0,0,0,0,0,0,0,0,3.6946,3.6948,3.71,3.7101,3.7103,3.7191,3.7192,3.7193,3.7215,3.7214,3.7214,3.7213,3.7303,3.7306,3.731,0,0,0,0,0,0,0,0,0,0,0,0,0,3.7022,3.6949,3.71,3.7124,3.7127,3.719,3.7192,3.7193,3.7215,3.7214,3.7213,3.7213,3.7301,3.7306,3.731,3.7355,0,0,3.7324,3.7325,0,0,0,0,0,0,0,0,3.7018,3.7028,3.7119,3.7123,3.7126,3.7191,3.7171,3.7248,3.7215,3.7182,3.7213,3.7212,3.7267,3.7274,3.7293,3.7359,3.7363,3.7324,3.7327,3.7329,3.733,0,0,0,0,0,0,0,3.7012,3.7024,3.7136,3.7121,3.7125,3.713,3.714,3.7185,3.7228,3.7185,3.7186,3.7197,3.7268,3.7288,3.7295,3.7364,3.7324,3.7328,3.7331,3.7332,3.7475,3.7476,0,0,0,0,0,0,3.7003,3.7019,3.7133,3.7139,3.7069,3.7134,3.7145,3.7171,3.7227,3.7235,3.7198,3.7198,3.7281,3.729,3.7298,3.7356,3.7329,3.7333,3.7335,3.7474,3.7475,3.7476,0,0,0,0,0,0,3.7,3.7013,3.713,3.708,3.7095,3.7137,3.7166,3.7173,3.7193,3.7237,3.7245,3.721,3.7281,3.7292,3.7341,3.7359,3.7335,3.7339,3.7472,3.7474,3.7476,3.7471,0,0,0,0,0,0,3.6995,3.7012,3.7029,3.708,3.7098,3.7171,3.7168,3.7175,3.7201,3.7202,3.7251,3.7259,3.7281,3.7335,3.7346,3.7365,3.7342,3.7471,3.7473,3.7475,3.747,3.7472,3.7474,0,0,0,0,0,3.699,3.7023,3.703,3.7044,3.712,3.7172,3.7182,3.7208,3.7202,3.722,3.7249,3.7257,3.7356,3.734,3.7352,3.7373,3.747,3.7473,3.7475,3.7468,3.7472,3.7474,0,0,0,0,0,0,3.6972,3.703,3.7038,3.7089,3.7126,3.7176,3.7199,3.721,3.7248,3.7247,3.7277,3.7288,3.7336,3.7359,3.734,3.7421,3.7413,3.7418,3.7403,3.7407,3.7409,3.7402,3.7346,0,0,0,0,0,3.6974,3.7012,3.7061,3.7101,3.7119,3.7156,3.718,3.7197,3.7235,3.725,3.7283,3.7319,3.7359,3.7384,3.7423,3.7473,3.7485,3.7494,3.7496,3.7498,3.7502,3.7532,3.7537,3.7485,3.7485,3.7485,0,0,3.6979,3.7015,3.7037,3.7099,3.7129,3.7167,3.7169,3.7209,3.7238,3.7256,3.7306,3.7331,3.7374,3.7425,3.7448,3.7446,3.752,3.7502,3.7503,3.7506,3.7536,3.7541,3.7545,3.7487,3.7486,3.7486,0,0,3.7007,3.7038,3.7076,3.7107,3.7154,3.7179,3.7188,3.7237,3.7255,3.7305,3.732,3.7355,3.7422,3.7452,3.7477,3.752,3.7529,3.7531,3.7544,3.7573,3.7577,3.7581,3.7597,3.7602,3.7535,3.7535,3.7535,0,3.7007,3.7066,3.7094,3.7135,3.7161,3.7182,3.7221,3.7249,3.7305,3.7323,3.732,3.7406,3.7436,3.7495,3.7506,3.7525,3.7537,3.7525,3.7574,3.7578,3.7582,3.7598,3.7604,3.7535,3.7535,3.7535,3.7535,0,3.7064,3.7105,3.713,3.7185,3.7215,3.7254,3.7289,3.7316,3.7331,3.7356,3.7407,3.7445,3.7493,3.7508,3.7522,3.757,3.7567,3.7568,3.7561,3.7587,3.7602,3.7608,3.7535,3.7535,3.7535,3.7535,0,0,3.7082,3.7154,3.7163,3.7189,3.7243,3.7275,3.7316,3.7364,3.7387,3.7425,3.7461,3.7518,3.7521,3.7548,3.7567,3.7592,3.7625,3.7591,3.7592,3.7597,3.7681,3.768,3.7686,3.7632,3.7633,3.7634,3.7678,0,3.7117,3.7191,3.7219,3.728,3.7319,3.734,3.7375,3.7412,3.7437,3.7474,3.7502,3.7542,3.7542,3.7559,3.7586,3.7616,3.7643,3.7613,3.7665,3.7667,3.7654,3.7694,3.7693,3.7732,3.7684,3.7685,3.7686,0,3.7168,3.7209,3.7274,3.7325,3.7342,3.7374,3.7421,3.7456,3.7498,3.7515,3.7547,3.7565,3.7609,3.7599,3.7661,3.764,3.7663,3.7681,3.7684,3.7689,3.7678,3.7702,3.7745,3.7751,3.7695,3.7695,3.7694,0,3.7176,3.7247,3.7296,3.7318,3.7378,3.74,3.7426,3.7468,3.7496,3.7537,3.7555,3.76,3.7625,3.766,3.7689,3.7679,3.7749,3.7741,3.7764,3.7763,3.7777,3.7776,3.7825,3.7792,3.7792,3.7792,3.7791,0,3.7212,3.7252,3.7301,3.733,3.7375,3.7407,3.7451,3.7478,3.7516,3.7552,3.7572,3.7605,3.7642,3.768,3.7703,3.7751,3.7762,3.7777,3.7782,3.7775,3.7773,3.7791,3.7789,3.7793,3.7793,3.7792,3.7792,0,3.7228,3.7263,3.7317,3.7371,3.7386,3.7416,3.7462,3.7492,3.7519,3.7564,3.7577,3.7619,3.7665,3.7698,3.7757,3.7772,3.7825,3.783,3.781,3.7813,3.7834,3.7832,3.7897,3.7907,3.7866,3.7867,3.7867,0,3.725,3.7281,3.7338,3.7364,3.7391,3.7432,3.7461,3.7494,3.7523,3.7576,3.76,3.7647,3.7687,3.776,3.7796,3.7842,3.7848,3.7868,3.7855,3.7848,3.785,3.7848,3.7851,3.787,3.787,3.787,3.787,0,3.7284,3.73,3.7341,3.7389,3.7424,3.7462,3.7501,3.7521,3.7561,3.7593,3.7641,3.7672,3.7734,3.7781,3.7831,3.7858,3.7871,3.7874,3.7882,3.7875,3.7863,3.7871,3.7816,3.7873,3.7872,3.7872,3.7872,3.7872,3.7304,3.7334,3.7379,3.7425,3.7458,3.7495,3.7526,3.7558,3.7599,3.7652,3.7669,3.7719,3.7763,3.7831,3.7859,3.7899,3.7898,3.7909,3.7912,3.7914,3.7914,3.7857,3.7908,3.7908,3.7908,3.7908,3.7908,0,3.7341,3.7372,3.7413,3.7468,3.7505,3.7515,3.756,3.7589,3.7633,3.7673,3.7713,3.7769,3.7816,3.7856,3.7904,3.7929,3.7936,3.794,3.7939,3.7945,3.7912,3.7901,3.7934,3.7934,3.7934,3.7934,3.7934,3.7934,3.7364,3.7414,3.7436,3.7504,3.7534,3.7584,3.7609,3.7643,3.7676,3.7737,3.7777,3.7803,3.7844,3.7896,3.7939,3.795,3.7967,3.797,3.7982,3.795,3.7947,3.7944,3.7934,3.7974,3.7974,3.8013,3.8013,3.8013]},{"header":{"parameterUnit":"m.s-1","parameterCategory":1,"la1":30.2991,"la2":30.254,"lo1":-89.0895,"lo2":-89.0444,"dy":0.0017,"dx":0.0017,"nx":28,"ny":28,"refTime":"2024-08-18T09:00:00:Z","depth":0,"parameterNumber":3,"parameterNumberName":"V-component_of_WINDS"},"data":[0,0,0,0,0,0,0,0,0,0,0,0,0,0,0,0,0,0,0,0,0,0,0,0,0,0,0,0,0,0,0,0,0,0,0,0,0,0,0,0,0,0,0,0,0,0,0,0,0,0,0,0,0,0,0,0,0,0,-1.7225,-1.7226,0,-1.7282,-1.7283,-1.7283,-1.73,-1.73,-1.73,-1.7299,-1.7357,-1.7359,-1.736,0,0,0,0,0,0,0,0,0,0,0,0,0,-1.7131,-1.7133,-1.7225,-1.7226,-1.7227,-1.7282,-1.7283,-1.7283,-1.73,-1.73,-1.73,-1.7299,-1.7356,-1.7358,-1.736,0,0,0,0,0,0,0,0,0,0,0,0,0,-1.7178,-1.7133,-1.7225,-1.7242,-1.7244,-1.7282,-1.7283,-1.7284,-1.73,-1.73,-1.73,-1.7299,-1.7355,-1.7358,-1.7361,-1.7386,0,0,-1.7369,-1.737,0,0,0,0,0,0,0,0,-1.7176,-1.7182,-1.7238,-1.7241,-1.7243,-1.7284,-1.7271,-1.7318,-1.7301,-1.7279,-1.7299,-1.7299,-1.7333,-1.7337,-1.7349,-1.7389,-1.7391,-1.7369,-1.7371,-1.7372,-1.7373,0,0,0,0,0,0,0,-1.7172,-1.7179,-1.7248,-1.7239,-1.7242,-1.7246,-1.7253,-1.728,-1.7307,-1.7281,-1.7282,-1.7289,-1.7334,-1.7346,-1.735,-1.7392,-1.7369,-1.7372,-1.7373,-1.7374,-1.7457,-1.7458,0,0,0,0,0,0,-1.7166,-1.7177,-1.7246,-1.7249,-1.7208,-1.7248,-1.7255,-1.7271,-1.7307,-1.7312,-1.7289,-1.7289,-1.7342,-1.7347,-1.7352,-1.7385,-1.7372,-1.7374,-1.7376,-1.7456,-1.7457,-1.7458,0,0,0,0,0,0,-1.7164,-1.7172,-1.7243,-1.7213,-1.7223,-1.725,-1.7268,-1.7272,-1.7285,-1.7313,-1.7318,-1.7296,-1.7342,-1.7349,-1.7378,-1.7388,-1.7376,-1.7378,-1.7456,-1.7457,-1.7458,-1.7451,0,0,0,0,0,0,-1.7162,-1.7172,-1.7181,-1.7214,-1.7224,-1.7268,-1.7268,-1.7274,-1.7289,-1.729,-1.7322,-1.7327,-1.7342,-1.7374,-1.7381,-1.7391,-1.738,-1.7455,-1.7456,-1.7457,-1.745,-1.7452,-1.7452,0,0,0,0,0,-1.7158,-1.7177,-1.7182,-1.719,-1.7237,-1.7268,-1.7275,-1.7292,-1.729,-1.73,-1.7319,-1.7326,-1.7385,-1.7377,-1.7384,-1.7396,-1.7455,-1.7456,-1.7457,-1.745,-1.7451,-1.7452,0,0,0,0,0,0,-1.7144,-1.7181,-1.7187,-1.7217,-1.7239,-1.7271,-1.7285,-1.7293,-1.7316,-1.7316,-1.7336,-1.7343,-1.7371,-1.7387,-1.7376,-1.7423,-1.742,-1.7423,-1.7412,-1.7414,-1.7415,-1.7411,-1.7382,0,0,0,0,0,-1.7145,-1.7167,-1.7198,-1.7221,-1.7232,-1.7257,-1.7271,-1.7282,-1.7307,-1.7316,-1.7337,-1.736,-1.7384,-1.74,-1.7423,-1.7453,-1.746,-1.7465,-1.7466,-1.7466,-1.7469,-1.7487,-1.7489,-1.7462,-1.7462,-1.7462,0,0,-1.7145,-1.7169,-1.7181,-1.7219,-1.7238,-1.7261,-1.7264,-1.7288,-1.7306,-1.732,-1.7349,-1.7365,-1.7393,-1.7422,-1.7436,-1.7436,-1.7478,-1.7468,-1.7468,-1.747,-1.7488,-1.7491,-1.7493,-1.7463,-1.7463,-1.7463,0,0,-1.7159,-1.7179,-1.7201,-1.722,-1.7249,-1.7265,-1.727,-1.7302,-1.7313,-1.7343,-1.7354,-1.7375,-1.7416,-1.7436,-1.7451,-1.7474,-1.7481,-1.7481,-1.7486,-1.7503,-1.7505,-1.7507,-1.7516,-1.7519,-1.7483,-1.7483,-1.7483,0,-1.7157,-1.7192,-1.7211,-1.7235,-1.7251,-1.7266,-1.7288,-1.7306,-1.7341,-1.7352,-1.7351,-1.7404,-1.7423,-1.7458,-1.7464,-1.7476,-1.7483,-1.7477,-1.7503,-1.7506,-1.7508,-1.7517,-1.752,-1.7483,-1.7483,-1.7483,-1.7483,0,-1.7188,-1.7212,-1.7227,-1.7261,-1.7279,-1.7302,-1.7325,-1.7341,-1.7351,-1.7368,-1.7399,-1.7423,-1.7452,-1.7461,-1.7471,-1.7498,-1.7497,-1.7499,-1.7497,-1.751,-1.7519,-1.7522,-1.7482,-1.7482,-1.7483,-1.7483,0,0,-1.7194,-1.7239,-1.7244,-1.7261,-1.7294,-1.7314,-1.7338,-1.7367,-1.7381,-1.7405,-1.7426,-1.7461,-1.7464,-1.7482,-1.7494,-1.7509,-1.7527,-1.751,-1.7511,-1.7513,-1.756,-1.7558,-1.7562,-1.7532,-1.7533,-1.7533,-1.7558,0,-1.7212,-1.7256,-1.7275,-1.731,-1.7334,-1.7348,-1.737,-1.7393,-1.7409,-1.7431,-1.7449,-1.7474,-1.7475,-1.7486,-1.7502,-1.7521,-1.7537,-1.752,-1.7552,-1.7553,-1.7546,-1.7566,-1.7564,-1.7586,-1.7561,-1.7562,-1.7562,0,-1.724,-1.7265,-1.7303,-1.7335,-1.7346,-1.7365,-1.7394,-1.7415,-1.7442,-1.7452,-1.7473,-1.7484,-1.7511,-1.7507,-1.7544,-1.7532,-1.7547,-1.7558,-1.756,-1.7564,-1.7559,-1.7571,-1.7593,-1.7597,-1.7567,-1.7567,-1.7567,0,-1.7241,-1.7285,-1.7314,-1.7327,-1.7365,-1.7378,-1.7394,-1.7421,-1.7438,-1.7463,-1.7475,-1.7503,-1.7518,-1.754,-1.7559,-1.7554,-1.7595,-1.7592,-1.7605,-1.7605,-1.7613,-1.7612,-1.7639,-1.7622,-1.7621,-1.7621,-1.7621,0,-1.7261,-1.7284,-1.7315,-1.7333,-1.7359,-1.738,-1.7406,-1.7423,-1.7447,-1.7469,-1.7483,-1.7503,-1.7527,-1.755,-1.7566,-1.7595,-1.7602,-1.7611,-1.7615,-1.7611,-1.7609,-1.7621,-1.762,-1.7622,-1.7622,-1.7622,-1.7622,0,-1.7267,-1.7289,-1.7321,-1.7355,-1.7364,-1.7382,-1.7411,-1.7429,-1.7447,-1.7474,-1.7482,-1.7509,-1.7537,-1.7559,-1.7595,-1.7606,-1.7637,-1.7641,-1.7628,-1.763,-1.7642,-1.7641,-1.7677,-1.7683,-1.7661,-1.7661,-1.7662,0,-1.7278,-1.7296,-1.7332,-1.7348,-1.7365,-1.739,-1.7407,-1.7429,-1.7447,-1.748,-1.7494,-1.7523,-1.7548,-1.7593,-1.7616,-1.7645,-1.765,-1.766,-1.7654,-1.7649,-1.7651,-1.765,-1.7652,-1.7661,-1.7661,-1.7661,-1.7661,0,-1.7296,-1.7306,-1.7331,-1.736,-1.7381,-1.7405,-1.7429,-1.7441,-1.7467,-1.7487,-1.7516,-1.7536,-1.7574,-1.7603,-1.7634,-1.7651,-1.7661,-1.7663,-1.7668,-1.7663,-1.7656,-1.7661,-1.7631,-1.7662,-1.7662,-1.7662,-1.7662,-1.7662,-1.7305,-1.7323,-1.7351,-1.7379,-1.74,-1.7422,-1.7441,-1.7462,-1.7487,-1.752,-1.7531,-1.7561,-1.7589,-1.7632,-1.765,-1.7674,-1.7674,-1.7681,-1.7683,-1.7684,-1.7684,-1.7651,-1.768,-1.768,-1.768,-1.768,-1.768,0,-1.7324,-1.7344,-1.7369,-1.7403,-1.7425,-1.7433,-1.746,-1.7478,-1.7505,-1.753,-1.7555,-1.759,-1.7619,-1.7644,-1.7675,-1.769,-1.7695,-1.7697,-1.7696,-1.77,-1.7682,-1.7675,-1.7692,-1.7692,-1.7692,-1.7692,-1.7692,-1.7692,-1.7337,-1.7367,-1.7381,-1.7422,-1.7441,-1.7472,-1.7487,-1.7508,-1.7529,-1.7567,-1.7591,-1.7608,-1.7634,-1.7666,-1.7694,-1.7701,-1.7711,-1.7712,-1.7721,-1.7703,-1.7701,-1.77,-1.7694,-1.7714,-1.7714,-1.7737,-1.7737,-1.7737]}]]